| time (UTC) | temp F | wind direction | speed MPH | gust MPH | rain 1hr in | rain 24hr in | rain mn in | humidity % | barometer mb |
| 20260505021558 | 40 | 248 | 10.0 | 16.0 | 0.00 | 0.01 | 0.00 | 92 | 1007.4 |
| 20260505020108 | 40 | 241 | 10.0 | 16.0 | 0.00 | 0.01 | 0.00 | 92 | 1007.3 |
| 20260505014603 | 40 | 227 | 6.0 | 19.0 | 0.00 | 0.04 | 0.00 | 92 | 1007.2 |
| 20260505013058 | 40 | 248 | 10.0 | 17.0 | 0.00 | 0.04 | 0.00 | 91 | 1007.1 |
| 20260505011601 | 41 | 279 | 8.0 | 16.0 | 0.00 | 0.04 | 0.00 | 91 | 1007.0 |
| 20260505010112 | 41 | 226 | 7.0 | 14.0 | 0.00 | 0.04 | 0.00 | 90 | 1006.9 |
| 20260505004629 | 41 | 288 | 7.0 | 16.0 | 0.00 | 0.05 | 0.00 | 90 | 1006.9 |
| 20260505003100 | 41 | 263 | 6.0 | 19.0 | 0.00 | 0.05 | 0.00 | 91 | 1006.9 |
| 20260505001555 | 41 | 216 | 8.0 | 17.0 | 0.00 | 0.05 | 0.00 | 89 | 1006.8 |
| 20260505000113 | 42 | 244 | 10.0 | 17.0 | 0.00 | 0.05 | 0.00 | 89 | 1006.4 |
| 20260504234554 | 42 | 237 | 8.0 | 16.0 | 0.00 | 0.07 | 0.00 | 88 | 1006.0 |
| 20260504233053 | 42 | 234 | 9.0 | 17.0 | 0.00 | 0.07 | 0.00 | 87 | 1005.8 |
| 20260504231621 | 42 | 252 | 13.0 | 21.0 | 0.00 | 0.07 | 0.00 | 86 | 1005.9 |
| 20260504230054 | 43 | 241 | 13.0 | 26.0 | 0.00 | 0.07 | 0.00 | 85 | 1005.8 |
| 20260504224613 | 43 | 170 | 15.0 | 28.0 | 0.00 | 0.11 | 0.00 | 85 | 1005.6 |
| 20260504223057 | 43 | 225 | 18.0 | 30.0 | 0.00 | 0.11 | 0.00 | 83 | 1005.3 |
| 20260504221641 | 44 | 235 | 17.0 | 29.0 | 0.00 | 0.11 | 0.00 | 82 | 1005.1 |
| 20260504220056 | 44 | 241 | 17.0 | 28.0 | 0.00 | 0.11 | 0.00 | 81 | 1005.1 |
| 20260504214554 | 45 | 279 | 20.0 | 30.0 | 0.00 | 0.19 | 0.00 | 79 | 1005.0 |
| 20260504213101 | 45 | 210 | 20.0 | 35.0 | 0.00 | 0.19 | 0.00 | 79 | 1004.8 |
| 20260504211554 | 46 | 235 | 17.0 | 38.0 | 0.00 | 0.19 | 0.00 | 77 | 1004.7 |
| 20260504210058 | 46 | 224 | 18.0 | 38.0 | 0.00 | 0.19 | 0.00 | 75 | 1004.4 |
| 20260504204554 | 47 | 158 | 20.0 | 39.0 | 0.00 | 0.35 | 0.00 | 72 | 1004.3 |
| 20260504203053 | 47 | 229 | 21.0 | 36.0 | 0.00 | 0.35 | 0.00 | 71 | 1004.0 |
| 20260504201555 | 46 | 233 | 22.0 | 35.0 | 0.00 | 0.35 | 0.00 | 71 | 1003.7 |
| 20260504200056 | 46 | 25 | 20.0 | 40.0 | 0.00 | 0.35 | 0.00 | 73 | 1003.5 |
| 20260504194602 | 47 | 293 | 22.0 | 38.0 | 0.00 | 0.50 | 0.00 | 72 | 1003.3 |
| 20260504193055 | 48 | 215 | 22.0 | 33.0 | 0.00 | 0.50 | 0.00 | 69 | 1003.3 |
| 20260504191615 | 51 | 239 | 14.0 | 26.0 | 0.00 | 0.50 | 0.00 | 62 | 1002.9 |
| 20260504190058 | 52 | 214 | 21.0 | 34.0 | 0.00 | 0.50 | 0.00 | 57 | 1002.9 |
| 20260504184603 | 56 | 275 | 18.0 | 36.0 | 0.00 | 0.60 | 0.00 | 39 | 1002.6 |
| 20260504183100 | 55 | 244 | 18.0 | 32.0 | 0.00 | 0.60 | 0.00 | 40 | 1002.6 |
| 20260504181555 | 55 | 264 | 19.0 | 32.0 | 0.00 | 0.60 | 0.00 | 43 | 1002.6 |
| 20260504180054 | 55 | 292 | 16.0 | 31.0 | 0.00 | 0.60 | 0.00 | 47 | 1002.5 |
| 20260504174553 | 54 | 281 | 14.0 | 37.0 | 0.00 | 0.62 | 0.00 | 52 | 1002.2 |
| 20260504173055 | 54 | 175 | 16.0 | 28.0 | 0.00 | 0.62 | 0.00 | 53 | 1002.0 |
| 20260504171556 | 53 | 230 | 16.0 | 32.0 | 0.00 | 0.62 | 0.00 | 52 | 1001.8 |
| 20260504170107 | 54 | 312 | 17.0 | 29.0 | 0.00 | 0.62 | 0.00 | 54 | 1001.7 |
| 20260504140104 | 44 | 232 | 17.0 | 30.0 | 0.00 | 0.62 | 0.00 | 84 | 1000.6 |
| 20260504081555 | 36 | 283 | 18.0 | 31.0 | 0.00 | 0.62 | 0.00 | 91 | 990.3 |
| 20260504060105 | 36 | 271 | 14.0 | 33.0 | 0.00 | 0.62 | 0.00 | 92 | 985.1 |
| 20260504050123 | 36 | 289 | 15.0 | 30.0 | 0.00 | 0.62 | 0.00 | 92 | 983.1 |
| 20260504044555 | 37 | 270 | 13.0 | 31.0 | 0.00 | 0.62 | 0.00 | 92 | 982.5 |
| 20260504043101 | 37 | 302 | 13.0 | 26.0 | 0.00 | 0.62 | 0.00 | 92 | 982.0 |
| 20260504041559 | 38 | 276 | 12.0 | 24.0 | 0.00 | 0.62 | 0.00 | 92 | 981.4 |
| 20260504040113 | 38 | 250 | 12.0 | 25.0 | 0.00 | 0.62 | 0.00 | 92 | 981.0 |
| 20260504034611 | 38 | 227 | 9.0 | 20.0 | 0.00 | 0.62 | 0.00 | 92 | 980.1 |
| 20260504033059 | 38 | 260 | 10.0 | 20.0 | 0.00 | 0.62 | 0.00 | 93 | 979.4 |
| 20260504031611 | 38 | 260 | 11.0 | 20.0 | 0.00 | 0.62 | 0.00 | 93 | 978.4 |
| 20260504030112 | 39 | 296 | 10.0 | 23.0 | 0.01 | 0.62 | 0.00 | 93 | 977.6 |
| 20260504024555 | 39 | 298 | 10.0 | 18.0 | 0.02 | 0.62 | 0.62 | 94 | 976.7 |
| 20260504023055 | 39 | 281 | 9.0 | 15.0 | 0.02 | 0.61 | 0.61 | 94 | 976.3 |